GW5023 Weather Reports


time (UTC)temp
C
wind
direction
speed
KPH
gust
KPH
rain 1hr
cm
rain 24hr
cm
rain mn
cm
humidity
%
barometer
mb
20260906123014 19 205 0.0 3.2 0.00 2.08 0.00 93 1016.2
20260906121515 18 197 0.0 3.2 0.00 2.24 0.00 94 1016.0
20260906120020 18 182 0.0 3.2 0.00 2.24 0.00 94 1015.9
20260906114504 18 171 0.0 3.2 0.00 2.24 0.00 94 1015.7
20260906113008 18 169 0.0 3.2 0.00 2.24 0.00 94 1015.6
20260906111520 18 176 1.6 3.2 0.00 2.24 0.00 94 1015.4
20260906110019 18 188 0.0 3.2 0.00 2.24 0.00 94 1015.1
20260906104529 18 221 1.6 3.2 0.00 2.24 0.00 94 1014.9
20260906103004 18 199 0.0 3.2 0.00 2.24 0.00 94 1014.9
20260906101512 18 199 0.0 3.2 0.00 2.24 0.00 94 1014.7
20260906100017 18 199 0.0 0.0 0.00 2.24 0.00 94 1014.8
20260906094531 18 199 0.0 3.2 0.00 2.24 0.00 94 1014.8
20260906093027 19 179 0.0 3.2 0.00 2.24 0.00 94 1014.9
20260906091519 19 179 0.0 3.2 0.00 2.24 0.00 94 1014.8
20260906090015 19 209 0.0 1.6 0.00 2.24 0.00 94 1014.6
20260906084525 19 186 0.0 3.2 0.00 2.24 0.00 94 1014.6
20260906083036 19 187 1.6 3.2 0.00 2.24 0.00 94 1014.9
20260906081535 19 153 0.0 3.2 0.00 2.24 0.00 94 1014.6
20260906080012 19 153 0.0 3.2 0.00 2.24 0.00 94 1014.5
20260906074519 19 62 0.0 3.2 0.00 2.24 0.00 94 1014.3
20260906073024 19 71 1.6 3.2 0.00 2.24 0.00 94 1014.3
20260906071530 19 63 0.0 3.2 0.00 2.24 0.00 94 1014.6
20260906070011 19 63 1.6 3.2 0.00 2.24 0.00 94 1014.9
20260906064518 19 43 0.0 3.2 0.00 2.24 0.00 94 1014.7
20260906063021 19 42 1.6 3.2 0.00 2.24 0.00 94 1014.7
20260906061529 19 94 0.0 3.2 0.00 2.24 0.00 94 1014.7
20260906060030 20 55 0.0 3.2 0.00 2.24 0.00 94 1014.5
20260906054516 20 55 1.6 1.6 0.00 2.24 0.00 94 1014.6
20260906053026 20 90 0.0 3.2 0.00 2.24 0.00 94 1014.6
20260906051532 20 55 0.0 3.2 0.00 2.24 0.00 94 1014.4
20260906050049 20 55 0.0 3.2 0.00 2.24 0.00 94 1014.5
20260906044533 20 55 1.6 3.2 0.00 2.24 0.00 94 1014.5
20260906043018 20 123 0.0 3.2 0.00 2.24 0.00 94 1014.9
20260906041524 20 95 0.0 3.2 0.00 2.24 0.00 94 1015.2
20260906040030 20 299 0.0 3.2 0.00 2.24 0.00 94 1015.3
20260906034539 20 105 0.0 3.2 0.33 2.24 2.24 94 1015.1
20260906033021 20 142 0.0 3.2 0.61 2.24 2.24 94 1015.6
20260906031525 20 86 0.0 3.2 0.61 2.24 2.24 93 1015.6
20260906030027 20 40 1.6 4.8 0.61 2.24 2.24 93 1015.6
20260906024531 20 266 1.6 3.2 0.28 1.91 1.91 93 1015.6
20260906023035 20 135 0.0 3.2 0.00 1.63 1.63 93 1015.3
20260906021517 20 36 1.6 3.2 0.00 1.63 1.63 93 1015.4
20260906020028 20 109 1.6 3.2 0.00 1.63 1.63 93 1015.2
20260906014534 20 155 0.0 3.2 0.00 1.63 1.63 93 1015.2
20260906013030 20 185 1.6 3.2 0.00 1.63 1.63 93 1015.0
20260906011520 20 51 1.6 3.2 0.00 1.63 1.63 93 1014.9
20260906010024 20 92 1.6 3.2 0.00 1.63 1.63 92 1014.5
20260906004527 20 46 1.6 3.2 0.00 1.63 1.63 92 1014.2
20260906003029 20 61 0.0 1.6 0.00 1.63 1.63 92 1014.3
20260906001516 21 61 0.0 3.2 0.00 1.63 1.63 91 1014.0
20260906000018 21 61 0.0 3.2 0.00 1.63 1.63 90 1014.0
20260905234525 21 30 0.0 3.2 0.00 1.63 1.63 89 1014.1
20260905233031 22 42 0.0 3.2 0.00 1.63 1.63 87 1014.0
20260905231511 22 48 1.6 3.2 0.00 1.63 1.63 85 1014.2
20260905230015 23 17 0.0 3.2 0.00 1.63 1.63 84 1014.3
20260905224525 23 62 1.6 3.2 0.00 1.63 1.63 83 1014.2
20260905223027 24 29 1.6 1.6 0.00 1.63 1.63 82 1014.3
20260905221531 25 202 3.2 6.4 0.00 1.63 1.63 74 1014.2
20260905220019 25 272 1.6 4.8 0.00 1.63 1.63 77 1014.0
20260905214520 25 292 0.0 4.8 0.00 1.63 1.63 76 1014.0
20260905213027 26 227 3.2 8.0 0.00 1.63 1.63 67 1013.8
20260905211531 27 248 3.2 8.0 0.00 1.63 1.63 66 1013.7
20260905210042 27 219 3.2 8.0 0.00 1.63 1.63 66 1013.5
20260905204520 27 199 4.8 8.0 0.00 1.63 1.63 64 1013.5
20260905203027 26 45 3.2 16.1 0.00 1.65 1.63 65 1013.5
20260905201537 27 70 3.2 12.9 0.00 2.29 1.63 64 1013.6
20260905200041 27 199 6.4 14.5 0.00 2.31 1.63 64 1013.7
20260905194518 27 200 4.8 11.3 0.00 2.31 1.63 63 1013.8
20260905193028 27 232 3.2 8.0 0.00 2.31 1.63 65 1014.0
20260905191528 27 211 1.6 9.7 0.00 2.31 1.63 66 1014.2
20260905190031 27 288 1.6 9.7 0.00 2.31 1.63 63 1014.4
20260905184537 27 251 3.2 6.4 0.00 2.31 1.63 67 1014.6
20260905183026 27 244 3.2 9.7 0.00 2.31 1.63 64 1014.7
20260905181527 27 216 4.8 14.5 0.00 2.31 1.63 65 1015.0
20260905180030 26 227 3.2 6.4 0.00 2.31 1.63 69 1015.2
20260905174536 26 227 6.4 16.1 0.00 2.31 1.63 67 1015.6
20260905173031 26 250 3.2 9.7 0.00 2.31 1.63 71 1015.8
20260905171523 25 158 1.6 9.7 0.00 2.31 1.63 74 1016.0
20260905170030 25 31 1.6 12.9 0.00 2.31 1.63 77 1016.1
20260905164533 25 198 9.7 14.5 0.00 2.31 1.63 77 1016.0
20260905163034 24 231 1.6 8.0 0.00 2.31 1.63 81 1016.1
20260905161505 23 51 1.6 6.4 0.00 2.31 1.63 84 1016.1
20260905160013 23 218 6.4 9.7 0.00 2.31 1.63 84 1015.9
20260905154506 22 250 3.2 6.4 0.00 2.31 1.63 91 1015.7
20260905153008 21 360 0.0 3.2 0.03 2.31 1.63 92 1015.2
20260905151508 20 36 0.0 4.8 0.15 2.31 1.63 93 1015.3
20260905150016 20 18 3.2 4.8 0.15 2.31 1.63 94 1015.5
20260905144530 20 56 1.6 3.2 0.15 2.31 1.63 94 1016.5
20260905143010 19 88 1.6 3.2 0.23 2.29 1.60 94 1016.8
20260905141507 19 273 0.0 3.2 0.23 2.16 1.47 94 1017.2
20260905140011 19 9 1.6 3.2 0.33 2.16 1.47 94 1017.2
20260905134514 19 101 0.0 6.4 0.53 2.16 1.47 94 1017.1
20260905133009 19 57 1.6 3.2 1.24 2.06 1.37 94 1017.6
20260905131509 19 333 3.2 3.2 1.24 1.93 1.24 94 1018.2
20260905130011 20 38 1.6 4.8 1.14 1.83 1.14 94 1018.0
20260905124509 20 69 0.0 4.8 0.94 1.63 0.94 93 1018.1